Weather History for Lordsburg, NM

Change the Weather History Date:

Saturday, November 9, 2013

  Actual Average Record
Temperature  
Mean Temperature 52 °F -  
Max Temperature 71 °F 69 °F 71 °F (2013)
Min Temperature 33 °F 32 °F 33 °F (2013)
Degree Days  
Heating Degree Days 13    
Growing Degree Days 2 (Base 50)    
Moisture  
Dew Point 25 °F    
Average Humidity 39    
Maximum Humidity 60    
Minimum Humidity 20    
Precipitation  
Precipitation 0.00 in - - ()
Sea Level Pressure  
Sea Level Pressure 30.17 in    
Wind  
Wind Speed 1 mph (WNW)    
Max Wind Speed 7 mph    
Max Gust Speed -    
Visibility 10 miles    
Events      
Averages and records for this station are not official NWS values.
T = Trace of Precipitation, MM = Missing Value Source: NWS Daily Summary

Daily Weather History Graph

Daily Weather History Graph

Search for Another Location

Airport:

Trip Planner

Search our weather history database for the weather conditions in past years. The results will help you decide how hot, cold, wet, or windy it might be!

Date:

Astronomy

Nov. 09, 2013 Rise Set
Actual Time 6:39 AM MST 5:17 PM MST
Civil Twilight 6:13 AM MST 5:43 PM MST
Nautical Twilight 5:43 AM MST 6:12 PM MST
Astronomical Twilight 5:14 AM MST 6:41 PM MST
Moon 12:21 PM MST (11/9) 11:46 PM MST (11/9)
Length of Visible Light 11h 30m
Length of Day
10h 38m
Waxing Crescent, 45% of the Moon is Illuminated
Nov 9
Waxing Crescent
Nov 9
First Quarter
Nov 17
Full
Nov 25
Last Quarter
Dec 2
New

Hourly Weather History & Observations

Time (MST) Temp. Windchill Dew Point Humidity Pressure Visibility Wind Dir Wind Speed Gust Speed Precip Events Conditions
12:15 AM 42.8 °F - 23.0 °F 46% 30.13 in 10.0 mi Calm Calm - N/A   Clear
12:35 AM 42.8 °F - 26.6 °F 53% 30.13 in 10.0 mi Calm Calm - N/A   Clear
12:55 AM 39.2 °F - 23.0 °F 52% 30.14 in 10.0 mi Calm Calm - N/A   Clear
1:15 AM 39.2 °F - 23.0 °F 52% 30.14 in 10.0 mi Calm Calm - N/A   Clear
1:35 AM 37.4 °F - 23.0 °F 56% 30.14 in 10.0 mi Calm Calm - N/A   Clear
1:55 AM 37.4 °F - 23.0 °F 56% 30.14 in 10.0 mi Calm Calm - N/A   Clear
2:15 AM 37.4 °F - 21.2 °F 52% 30.14 in 10.0 mi Calm Calm - N/A   Clear
2:35 AM 37.4 °F 34.9 °F 23.0 °F 56% 30.14 in 10.0 mi WSW 3.5 mph - N/A   Clear
2:55 AM 37.4 °F - 21.2 °F 52% 30.14 in 10.0 mi Calm Calm - N/A   Clear
3:15 AM 37.4 °F - 21.2 °F 52% 30.14 in 10.0 mi Calm Calm - N/A   Clear
3:35 AM 35.6 °F - 21.2 °F 56% 30.14 in 10.0 mi Calm Calm - N/A   Clear
3:55 AM 37.4 °F - 23.0 °F 56% 30.14 in 10.0 mi Calm Calm - N/A   Clear
4:15 AM 37.4 °F - 23.0 °F 56% 30.15 in 10.0 mi Calm Calm - N/A   Clear
4:35 AM 33.8 °F - 21.2 °F 60% 30.15 in 10.0 mi Calm Calm - N/A   Clear
4:55 AM 33.8 °F - 21.2 °F 60% 30.16 in 10.0 mi Calm Calm - N/A   Clear
5:15 AM 33.8 °F - 21.2 °F 60% 30.16 in 10.0 mi Calm Calm - N/A   Clear
5:35 AM 33.8 °F - 21.2 °F 60% 30.17 in 10.0 mi Calm Calm - N/A   Clear
5:55 AM 33.8 °F - 21.2 °F 60% 30.18 in 10.0 mi Calm Calm - N/A   Clear
6:15 AM 33.8 °F - 21.2 °F 60% 30.18 in 10.0 mi Calm Calm - N/A   Clear
6:35 AM 33.8 °F - 21.2 °F 60% 30.19 in 10.0 mi Calm Calm - N/A   Clear
6:55 AM 33.8 °F - 21.2 °F 60% 30.19 in 10.0 mi Calm Calm - N/A   Clear
7:15 AM 37.4 °F - 23.0 °F 56% 30.20 in 10.0 mi Calm Calm - N/A   Clear
7:35 AM 35.6 °F - 21.2 °F 56% 30.20 in 10.0 mi Calm Calm - N/A   Clear
7:55 AM 39.2 °F - 23.0 °F 52% 30.21 in 10.0 mi Calm Calm - N/A   Clear
8:15 AM 42.8 °F - 23.0 °F 46% 30.21 in 10.0 mi Calm Calm - N/A   Clear
8:35 AM 44.6 °F - 24.8 °F 46% 30.22 in 10.0 mi Calm Calm - N/A   Clear
8:55 AM 46.4 °F - 24.8 °F 43% 30.23 in 10.0 mi Calm Calm - N/A   Clear
9:15 AM 48.2 °F - 26.6 °F 43% 30.23 in 10.0 mi Calm Calm - N/A   Clear
9:35 AM 51.8 °F - 26.6 °F 38% 30.23 in 10.0 mi Calm Calm - N/A   Clear
9:55 AM 55.4 °F - 28.4 °F 36% 30.22 in 10.0 mi NW 3.5 mph - N/A   Clear
10:15 AM 60.8 °F - 30.2 °F 31% 30.22 in 10.0 mi NW 4.6 mph - N/A   Clear
10:35 AM 62.6 °F - 30.2 °F 30% 30.21 in 10.0 mi NW 4.6 mph - N/A   Clear
10:55 AM 64.4 °F - 30.2 °F 28% 30.21 in 10.0 mi West 4.6 mph - N/A   Clear
11:15 AM 64.4 °F - 30.2 °F 28% 30.21 in 10.0 mi NW 5.8 mph - N/A   Clear
11:35 AM 66.2 °F - 30.2 °F 26% 30.20 in 10.0 mi NW 5.8 mph - N/A   Clear
11:55 AM 68.0 °F - 30.2 °F 24% 30.19 in 10.0 mi NW 5.8 mph - N/A   Clear
12:15 PM 68.0 °F - 28.4 °F 23% 30.18 in 10.0 mi NW 5.8 mph - N/A   Clear
12:35 PM 69.8 °F - 30.2 °F 23% 30.17 in 10.0 mi NNW 5.8 mph - N/A   Clear
12:55 PM 69.8 °F - 30.2 °F 23% 30.16 in 10.0 mi WSW 4.6 mph - N/A   Clear
1:15 PM 71.6 °F - 30.2 °F 22% 30.15 in 10.0 mi West 6.9 mph - N/A   Clear
1:35 PM 71.6 °F - 30.2 °F 22% 30.15 in 10.0 mi West 6.9 mph - N/A   Clear
1:55 PM 71.6 °F - 28.4 °F 20% 30.14 in 10.0 mi WNW 6.9 mph - N/A   Clear
2:15 PM 71.6 °F - 30.2 °F 22% 30.14 in 10.0 mi West 5.8 mph - N/A   Clear
2:35 PM 71.6 °F - 28.4 °F 20% 30.14 in 10.0 mi NNW 6.9 mph - N/A   Clear
2:55 PM 71.6 °F - 28.4 °F 20% 30.14 in 10.0 mi West 5.8 mph - N/A   Clear
3:15 PM 71.6 °F - 28.4 °F 20% 30.14 in 10.0 mi WNW 6.9 mph - N/A   Clear
3:35 PM 71.6 °F - 28.4 °F 20% 30.14 in 10.0 mi Calm Calm - N/A   Clear
3:55 PM 71.6 °F - 28.4 °F 20% 30.14 in 10.0 mi NW 4.6 mph - N/A   Clear
4:15 PM 71.6 °F - 28.4 °F 20% 30.14 in 10.0 mi NW 4.6 mph - N/A   Clear
4:35 PM 71.6 °F - 28.4 °F 20% 30.14 in 10.0 mi NNW 4.6 mph - N/A   Clear
4:55 PM 69.8 °F - 28.4 °F 21% 30.14 in 10.0 mi NNW 4.6 mph - N/A   Clear
5:15 PM 68.0 °F - 28.4 °F 23% 30.14 in 10.0 mi NNW 4.6 mph - N/A   Clear
5:35 PM 64.4 °F - 26.6 °F 24% 30.14 in 10.0 mi NNW 3.5 mph - N/A   Clear
5:55 PM 62.6 °F - 26.6 °F 26% 30.14 in 10.0 mi Calm Calm - N/A   Clear
6:15 PM 59.0 °F - 26.6 °F 29% 30.15 in 10.0 mi Calm Calm - N/A   Clear
6:35 PM 57.2 °F - 24.8 °F 29% 30.15 in 10.0 mi Calm Calm - N/A   Clear
6:55 PM 55.4 °F - 24.8 °F 31% 30.16 in 10.0 mi Calm Calm - N/A   Clear
7:35 PM 53.6 °F - 24.8 °F 33% 30.17 in 10.0 mi Calm Calm - N/A   Clear
7:55 PM 53.6 °F - 23.0 °F 30% 30.17 in 10.0 mi Calm Calm - N/A   Clear
8:15 PM 51.8 °F - 23.0 °F 33% 30.18 in 10.0 mi Calm Calm - N/A   Clear
8:35 PM 51.8 °F - 23.0 °F 33% 30.18 in 10.0 mi Calm Calm - N/A   Clear
8:55 PM 51.8 °F - 23.0 °F 33% 30.19 in 10.0 mi Calm Calm - N/A   Clear
9:15 PM 51.8 °F - 23.0 °F 33% 30.19 in 10.0 mi Calm Calm - N/A   Clear
9:35 PM 50.0 °F - 21.2 °F 32% 30.20 in 10.0 mi Calm Calm - N/A   Clear
9:55 PM 44.6 °F - 21.2 °F 39% 30.20 in 10.0 mi Calm Calm - N/A   Clear
10:15 PM 44.6 °F - 19.4 °F 37% 30.20 in 10.0 mi Calm Calm - N/A   Clear
10:35 PM 41.0 °F 39.0 °F 19.4 °F 42% 30.21 in 10.0 mi SE 3.5 mph - N/A   Clear
10:55 PM 41.0 °F 37.1 °F 19.4 °F 42% 30.20 in 10.0 mi SE 5.8 mph - N/A   Clear
11:15 PM 41.0 °F 37.1 °F 19.4 °F 42% 30.20 in 10.0 mi SSE 5.8 mph - N/A   Clear
11:35 PM 42.8 °F 39.3 °F 19.4 °F 39% 30.20 in 10.0 mi SSE 5.8 mph - N/A   Clear
11:55 PM 44.6 °F 41.4 °F 21.2 °F 39% 30.20 in 10.0 mi SSE 5.8 mph - N/A   Clear